Delta Virtual Airport Information Service

Tokyo Haneda International Airport

ICAO: RJTT Country: Japan
Latitude: 35.5522 Longitude: 139.78
Latest Arrival : DAC807 (ZSJN-RJTT) Latest Departure : DAC0001 (RJTT-PANC)


WX CaptureLIVE
Data provided by noaa.gov | Fetched at 21:41:45

METAR : RJTT 240200Z 02011KT 9999 FEW030 SCT060 19/07 Q1005 BECMG 14005KT RMK 1CU030 3SC060 A2970

TAF : RJTT 232305Z 2400/2506 02008KT 9999 FEW030 BECMG 2402/2404 18012KT BECMG 2410/2412 30008KT BECMG 2500/2503 18010KT


Runway Data for RJTT
Data provided by openaviationdata.com

Runway ID Mag Var Hdg Length Elevation Surface ILS Freq ILS Id ILS Slope
4 -7 41° 8208 ft 21 ft Asphalt -- -- --
16L -7 156° 9851 ft 21 ft Asphalt -- -- --
16R -7 156° 9851 ft 21 ft Asphalt -- -- --
22 -7 221° 8208 ft 21 ft Asphalt 108.1 IAD 3
34L -7 336° 9851 ft 21 ft Asphalt 111.7 IHA 3
34R -7 336° 9851 ft 21 ft Asphalt 108.9 ITC 3

Tokyo Haneda International Airport, Japan
Use only for reference purposes



Not for navigational purposes.